TITAN 3C TRANSTAGE DEB, 26524

Orbit data source: Space-Track

TITAN 3C TRANSTAGE DEB, 26524 is space debris in HEO originally from a launch on Tue, 21 Dec 1965 UTC launched from the Air Force Eastern Test Range (AFETR). Debris objects in space refer to the collection of defunct objects orbiting the Earth. Examples of debris include non-operational satellites, rocket bodies, and fragments generated from explosions, collisions, or faulty payload assembly.

Loading next visibility...
TITAN 3C TRANSTAGE DEB details
Identifier
26524, 1965-108AK
Orbit
HEO
Last TLE update2 days ago
Origin
Flag of USUSAF SSD (US)
ManufacturerUnknown
MissionSpacecraft
Bus & MotorUnknown
MassUnknown
Launch date (UTC)
1965-12-21 (59 years ago)
Launch vehicleUnknown
Launch site
Air Force Eastern Test Range (AFETR)
Object type
Payload
Rocket body
Debris
Shape & HBRUnknown
Radar Cross SectionMedium (>0.1 m² and <1 m²)

Expand to show TLE details & history

TLE from 2 days ago
0 TITAN 3C TRANSTAGE DEB
1 26524U 65108AK  24355.66711203 -.00000229  00000-0 -14620-2 0  9994
2 26524  26.9129 330.4964 6690717 151.4454   1.6825  2.81224500 28555
Epoch: 2024-12-20T16:00Z
Definitive object data (Epoch: 2024-12-20T16:00:38.479Z)
Latitude7.38456°
Longitude165.89221°
Altitude692.935 km
Speed9.692 km/s
True Right ascension09h 03m 07s
True Declination7° 20' 26"
Sunlit
Object was in full shadow at TLE epoch
Visualization TLE readout
Latitude-15.33265°
Longitude-32.73587°
Altitude28,295.548 km
Speed2.048 km/s
Apparent Right ascension19h 26m 40s
Apparent Declination-19° 40' 25"
Sunlit
Object is in daylight
Visualization observer readout
Local Sidereal Time04:43:41
Azimuth287.988° WNW
Elevation-49.747°
Doppler factor1
Orbital elements
Apogee altitude29,014.545 km
Perigee altitude639.201 km
Semi-major axis21,205.01 km
Eccentricity0.6690717
Inclination26.9129°
RAAN330.4964°
Arg. of periapsis151.4454°
True anomaly11.3581°
Mean anomaly1.6825°
Eccentric anomaly5.0708°
Mean motion0.70289 °/min
BSTAR-0.001462
Orbital period512.17 mins
Loading maneuver chart data...

TITAN 3C TRANSTAGE DEB Visibility forecast

Observer location: undefined°, undefined

Span
Click to sort rows by Start time (UTC) header in descending order
Start Az.
Max El. time (UTC)
Max El. Az.
Max El.
End time (UTC)
End Az.
374 mins2024-12-22 21:16:03.909Z208.576° SW2024-12-23 03:18:03.909Z180.307° SSW39.747°2024-12-23 03:30:03.909Z107.205° ESE
|